Regional Weather Roundup
Issued by NWS

Home | Current Version | Previous Version | Text Only | Print | Product List | Glossary Off
Versions: 1 2 3 4 5 6 7 8 9 10 11 12 13 14 15 16 17 18 19 20 21 22 23 24 25 26 27 28 29 30 31 32 33 34 35 36 37 38 39 40 41 42 43 44 45 46 47 48 49 50

000
ASUS43 KBIS 090610
RWRND

NORTH DAKOTA REGIONAL WEATHER ROUNDUP
NATIONAL WEATHER SERVICE BISMARCK ND
1200 AM CST TUE FEB 09 2016

NOTE: "FAIR" INDICATES FEW OR NO CLOUDS BELOW 12,000 FEET WITH NO
SIGNIFICANT WEATHER AND/OR OBSTRUCTIONS TO VISIBILITY.


NDZ001>003-009>011-017-090700-
NORTHWEST NORTH DAKOTA

CITY           SKY/WX    TMP DP  RH WIND       PRES   REMARKS
WILLISTON      CLOUDY    30  22  72 CALM      30.26S
6HR MIN TEMP:  29; 6HR MAX TEMP:  34;

MINOT          CLOUDY    25  13  60 NW6       30.26F WCI  18
MINOT AFB      CLOUDY    23  18  81 CALM      30.26S
$$

NDZ018>021-031>035-040>046-090700-
SOUTHWEST NORTH DAKOTA

CITY           SKY/WX    TMP DP  RH WIND       PRES   REMARKS
BISMARCK       CLOUDY    25  14  63 N8        30.27F WCI  16
6HR MIN TEMP:  24; 6HR MAX TEMP:  34;

DICKINSON      CLOUDY    28  17  63 W5        30.21F
GARRISON         N/A     23  16  74 VRB5      30.25F WCI  17
6HR MIN TEMP:  16; 6HR MAX TEMP:  29;

HETTINGER ARPT CLOUDY    30  14  51 N6        30.25S
$$

NDZ004>008-012>016-024-026-027-054-090700-
NORTHEAST NORTH DAKOTA

CITY           SKY/WX    TMP DP  RH WIND       PRES   REMARKS
GRAND FORKS    CLEAR      6   0  76 NW10      30.25F WCI  -9
GRND FRKS AFB  CLEAR      5  -1  75 N8        30.25F WCI  -8
DEVILS LAKE    CLOUDY     7   3  84 NW5       30.25S WCI  -2
$$

NDZ022-023-025-028>030-036>039-047>053-090700-
SOUTHEAST NORTH DAKOTA

CITY           SKY/WX    TMP DP  RH WIND       PRES   REMARKS
FARGO          CLEAR      8   1  73 N17       30.22F WCI -10
6HR MIN TEMP:   8; 6HR MAX TEMP:  12; 6HR PCP: TRACE;

JAMESTOWN      CLEAR     10   6  84 N8        30.22F WCI  -2
$$




USA.gov is the U.S. government's official web portal to all federal, state and local government web resources and services.